{"data":{"norad_id":56156,"intl_designator":"2023-047D","name":"PIESAT D","alt_names":[],"object_type":"PAYLOAD","status":"ACTIVE","operator":null,"country":"PRC","launch_date":"2023-03-30","launch_site_code":"TAISC","launch_vehicle":null,"mission":null,"orbit_class":"UNKNOWN","rcs_meters":null,"size_class":null,"mass_kg":null,"dimensions":null,"purposes":[],"wikipedia_slug":null,"has_3d_model":false,"image_url":null,"decayed_at":null,"tle_current":{"epoch":"2026-05-24T10:22:38.446752Z","epoch_age_seconds":120271,"freshness":"FRESH","line1":"1 56156U 23047D   26144.43238943  .00001487  00000+0  84811-4 0  9997","line2":"2 56156  97.5038 331.9195 0001451 104.0976 256.0417 15.14307879174200","mean_motion":15.14307879,"eccentricity":0.0001451,"inclination_deg":97.5038,"raan_deg":331.9195,"arg_perigee_deg":104.0976,"mean_anomaly_deg":256.0417,"bstar":8.4811e-5,"rev_number":17420,"period_min":95.092947739989,"perigee_km":522.07921377157,"apogee_km":524.08194711341,"semimajor_km":6901.2175804425,"source":"CELESTRAK","updated_at":"2026-05-25T13:37:59.366012Z"}}}